SCP
0 0 0 0 0 0 0 0 0 0 0 0 0 0 0 0 0 0 0 0 0 0
0 0 0 0 0 0 0 0 0 0 0 0 0 0 0 0 0 0 0 0 0 0
0 0 0 0 0 0 0 0 0 0 0 0 0 0 0 0 0 0 0 0 0 0
0 0 0 0 0 0 0 0 0 0 0 0 0 0 0 0 0 0 0 0 0 0
0 0 0 0 0 0 0 0 0 0 0 0 0 0 0 0 0 0 0 0 0 0
0 0 0 0 0 0 0 0 0 0 0 0 0 0 0 0 0 0 0 0 0 0
0 0 0 0 0 0 0 0 0 0 0 0 0 0 0 0 0 0 0 0 0 0
0 0 0 0 0 0 0 0 0 0 0 0 0 0 0 0 0 0 0 0 0 0
0 0 0 0 0 0 0 0 0 0 0 0 0 0 0 0 0 0 0 0 0 0
0 0 0 0 0 0 0 0 0 0 0 0 0 0 0 0 0 0 0 0 0 0
0 0 0 0 0 0 0 0 0 0 0 0 0 0 0 0 0 0 0 0 0 0
0 0 0 0 0 0 0 0 0 0 0 0 0 0 0 0 0 0 0 0 0 0
0 0 0 0 0 0 0 0 0 0 0 0 0 0 0 0 0 0 0 0 0 0
0 0 0 0 0 0 0 0 0 0 0 0 0 0 0 0 0 0 0 0 0 0
Wind_Speed_500mb
55 56 55 58 61 61 60 61 60 58 57 53 50 49 51 54 53 53 53 55 59 62
42 45 49 52 56 60 62 61 58 56 55 55 47 45 47 50 52 53 54 55 57 59
37 41 44 46 47 48 50 50 49 47 47 48 51 51 53 56 58 58 59 60 60 60
28 30 32 34 37 39 42 42 45 47 50 54 57 59 60 58 57 56 57 58 59 63
24 25 25 28 29 31 33 34 35 36 37 37 37 38 41 43 46 49 50 52 54 58
21 22 24 25 26 27 29 31 32 34 36 37 38 39 41 42 43 45 47 50 53 54
21 21 23 25 27 28 30 32 33 35 36 38 41 43 45 46 48 49 49 51 53 54
20 22 24 26 29 30 31 33 35 36 38 39 41 44 48 49 50 50 51 50 50 50
22 24 26 28 31 32 33 34 35 37 38 37 37 42 47 51 51 54 57 57 52 49
26 29 31 32 32 34 35 36 37 38 38 37 39 43 46 49 49 49 52 56 59 58
26 27 30 33 35 36 36 36 36 37 39 40 39 43 49 55 56 57 57 59 60 62
25 24 24 26 29 30 30 32 34 37 39 40 40 45 50 59 67 63 62 60 57 57
28 31 27 29 32 35 37 37 37 37 38 39 42 41 45 49 54 57 59 59 58 54
23 27 30 29 32 34 35 35 35 38 39 40 45 48 49 50 55 58 63 67 68 68
Wind_Direction_500mb
252 252 252 255 258 260 261 263 265 266 267 265 261 266 271 268 266 268 269 271 271 273
252 255 256 256 258 262 264 266 266 265 265 265 262 257 260 262 265 267 270 273 273 274
254 256 259 259 259 259 261 263 262 258 253 251 251 253 258 263 266 266 267 266 265 266
261 261 258 258 256 256 255 253 253 254 255 257 258 259 259 263 267 269 269 269 268 268
264 260 258 253 251 251 252 252 253 253 254 255 257 259 260 262 265 267 269 271 272 273
264 260 258 258 257 255 254 255 258 260 261 262 262 263 265 267 269 271 273 275 275 274
259 261 263 264 265 265 266 268 267 267 267 269 272 273 274 273 274 275 277 277 276 275
279 280 279 278 279 281 281 282 282 281 282 282 281 279 277 277 278 280 280 279 277 275
288 289 290 291 292 291 289 290 290 289 287 285 284 284 287 290 293 295 294 288 279 273
298 302 304 302 298 297 298 298 298 297 295 295 292 289 289 289 289 290 291 288 285 282
298 298 301 304 305 306 305 301 299 297 295 293 293 291 292 295 297 295 292 288 288 287
313 302 303 304 303 302 302 302 303 303 301 299 296 294 295 292 288 288 290 291 286 286
321 319 314 312 310 308 305 302 301 298 297 295 293 292 290 288 290 291 291 288 288 286
325 324 329 329 323 317 314 309 306 302 299 296 294 291 288 289 292 295 297 296 296 295
Wind_Speed_850mb
55 56 55 58 61 61 60 61 60 58 57 53 50 49 51 54 53 53 53 55 59 62
42 45 49 52 56 60 62 61 58 56 55 55 47 45 47 50 52 53 54 55 57 59
37 41 44 46 47 48 50 50 49 47 47 48 51 51 53 56 58 58 59 60 60 60
28 30 32 34 37 39 42 42 45 47 50 54 57 59 60 58 57 56 57 58 59 63
24 25 25 28 29 31 33 34 35 36 37 37 37 38 41 43 46 49 50 52 54 58
21 22 24 25 26 27 29 31 32 34 36 37 38 39 41 42 43 45 47 50 53 54
21 21 23 25 27 28 30 32 33 35 36 38 41 43 45 46 48 49 49 51 53 54
20 22 24 26 29 30 31 33 35 36 38 39 41 44 48 49 50 50 51 50 50 50
22 24 26 28 31 32 33 34 35 37 38 37 37 42 47 51 51 54 57 57 52 49
26 29 31 32 32 34 35 36 37 38 38 37 39 43 46 49 49 49 52 56 59 58
26 27 30 33 35 36 36 36 36 37 39 40 39 43 49 55 56 57 57 59 60 62
25 24 24 26 29 30 30 32 34 37 39 40 40 45 50 59 67 63 62 60 57 57
28 31 27 29 32 35 37 37 37 37 38 39 42 41 45 49 54 57 59 59 58 54
23 27 30 29 32 34 35 35 35 38 39 40 45 48 49 50 55 58 63 67 68 68
Wind_Direction_850mb
252 252 252 255 258 260 261 263 265 266 267 265 261 266 271 268 266 268 269 271 271 273
252 255 256 256 258 262 264 266 266 265 265 265 262 257 260 262 265 267 270 273 273 274
254 256 259 259 259 259 261 263 262 258 253 251 251 253 258 263 266 266 267 266 265 266
261 261 258 258 256 256 255 253 253 254 255 257 258 259 259 263 267 269 269 269 268 268
264 260 258 253 251 251 252 252 253 253 254 255 257 259 260 262 265 267 269 271 272 273
264 260 258 258 257 255 254 255 258 260 261 262 262 263 265 267 269 271 273 275 275 274
259 261 263 264 265 265 266 268 267 267 267 269 272 273 274 273 274 275 277 277 276 275
279 280 279 278 279 281 281 282 282 281 282 282 281 279 277 277 278 280 280 279 277 275
288 289 290 291 292 291 289 290 290 289 287 285 284 284 287 290 293 295 294 288 279 273
298 302 304 302 298 297 298 298 298 297 295 295 292 289 289 289 289 290 291 288 285 282
298 298 301 304 305 306 305 301 299 297 295 293 293 291 292 295 297 295 292 288 288 287
313 302 303 304 303 302 302 302 303 303 301 299 296 294 295 292 288 288 290 291 286 286
321 319 314 312 310 308 305 302 301 298 297 295 293 292 290 288 290 291 291 288 288 286
325 324 329 329 323 317 314 309 306 302 299 296 294 291 288 289 292 295 297 296 296 295